Location: Stony Creek
(40.9500°S, 175.8500°E)
Time: 10:05:27
(UTC+00:00)

Cosmos 1943 - Pass Details

Date: 15 May 2026
Orbit: 833 x 847 km, 71.0° (Epoch: 10 June)

Event Time Altitude Azimuth Distance (km) Brightness Sun altitude
Exits shadow 16:59:11 70° 303° (WNW) 898 3.1 -26.1°
Maximum altitude 16:59:45 79° 246° (WSW) 867 3.0 -26.0°
Drops below altitude 10° 17:05:29 10° 159° (SSE) 2,490 5.8 -24.9°
Sets 17:07:58 0° 157° (SSE) 3,433 6.6 -24.4°
